Regional Weather Roundup
Issued by NWS Charleston, SC

Current Version | Previous Version | Graphics & Text | Print | Product List | Glossary On
Versions: 1 2 3 4 5 6 7 8 9 10 11 12 13 14 15 16 17 18 19 20 21 22 23 24 25 26 27 28 29 30 31 32 33 34 35 36 37 38 39 40 41 42 43 44 45 46 47 48 49 50
000 ASUS42 KCHS 011527 RWRCHS REGIONAL WEATHER ROUNDUP NATIONAL WEATHER SERVICE CHARLESTON SC 1100 AM EDT MON JUN 01 2015 NOTE: "FAIR" INDICATES FEW OR NO CLOUDS BELOW 12,000 FEET WITH NO SIGNIFICANT WEATHER AND/OR OBSTRUCTIONS TO VISIBILITY. NOT ALL STATIONS ARE QUALITY CONTROLLED BY THE NATIONAL WEATHER SERVICE. USE DATA WITH CAUTION...ESPECIALLY DEWPOINT OBSERVATIONS. SCZ027-030-031-034>040-042>050-011600- ...SOUTHEAST SOUTH CAROLINA... CITY SKY/WX TMP DP RH WIND PRES REMARKS N CHARLESTON MOSUNNY 83 67 58 CALM 30.10S WATERFRONT PAR N/A 80 70 71 VRB2 30.08R MOUNT PLEASANT FAIR 84 70 61 SE5 30.10S JOHNS ISLAND PTSUNNY 84 70 61 SE3 30.10S PINOPOLIS N/A 84 70 61 CALM 30.01F MONCKS CORNER FAIR 84 66 54 SW3 30.09S SUMMERVILLE FAIR 84 68 58 CALM 30.10S BEAUFORT MCAS SUNNY 84 68 58 SE5 30.09F BEAUFORT ARPT FAIR 82 70 65 SW5 30.09S HILTON HEAD IS MOSUNNY 81 68 65 S6 30.11S WALTERBORO SUNNY 82 64 54 SW8 30.10S ALLENDALE FAIR 82 66 57 VRB3 30.08F ...SOUTHERN MIDLANDS AND PEE DEE... CITY SKY/WX TMP DP RH WIND PRES REMARKS GEORGETOWN NOT AVBL KINGSTREE NOT AVBL ORANGEBURG MOSUNNY 83 64 52 SW6 30.09S BARNWELL FAIR 84 70 61 S5 30.10S AIKEN FAIR 81 61 50 SW7 30.12S MANNING FAIR 81 61 50 SW8 30.09S COLUMBIA MOSUNNY 84 66 54 SE6 30.07F SUMTER SUNNY 83 63 50 SW6 30.07S FLORENCE SUNNY 83 65 54 CALM 30.08F MYRTLE BEACH MOSUNNY 84 68 58 VRB5 30.11F N MYRTLE BEACH SUNNY 82 69 64 S7 30.09F $$ GAZ063-065-086>088-099>101-113>116-118-119-134>141-150-011600- ...SOUTHEAST GEORGIA... CITY SKY/WX TMP DP RH WIND PRES REMARKS SAVANNAH ARPT PTSUNNY 81 65 58 S7 30.09F HUNTER AAF MOSUNNY 85 68 57 VRB3 30.07S FORT STEWART PTSUNNY 82 68 63 SE6 30.08S STATESBORO PTSUNNY 80 71 74 S5 30.10R SYLVANIA PTSUNNY 82 71 68 S5 30.11R CLAXTON FAIR 79 70 73 S5 30.10R ...CSRA...CENTRAL AND FAR SOUTHEAST GEORGIA... CITY SKY/WX TMP DP RH WIND PRES REMARKS THOMSON MOSUNNY 84 72 67 S5 30.13R HX 90 AUGUSTA-BUSH MOSUNNY 80 67 64 CALM 30.07F AUGUSTA-DANIEL SUNNY 80 67 64 W6 30.09S SWAINSBORO PTSUNNY 86 70 58 SW6 30.10S HX 90 VIDALIA SUNNY 82 66 57 CALM 30.09S EASTMAN FAIR 83 72 69 S6 30.11S HAZLEHURST FAIR 83 72 69 CALM 30.08S ALMA SUNNY 82 69 64 VRB6 30.08F WAYCROSS MOSUNNY 85 73 67 SW6 30.09S HX 91 JESUP FAIR 86 72 62 S5 30.10S HX 92 BAXLEY FAIR 84 70 61 S6 30.09S BRUNSWICK MOSUNNY 82 64 54 S6 30.11R SAINT SIMONS NOT AVBL $$ SCZ027-028-034-036>038-045-046-048>050-GAZ119-141-011600- ...LAKE AND SUPPLEMENTAL COASTAL OBSERVATIONS... STATION/POSITION TIME TEMP WIND PRES WAVE SWELL AIR SEA DIR/SP/G HT/PER HT/PER/DIR (UTC) (F) (DEG/KT/KT) (MB) (FT/S) (FT/S/D) UPR LAKE MARION NOT AVBL WINYAH BAY 1400 79 360/ 2 1018.0 LAKE MURRAY 1400 79 180/ 4/ 5 1017.9F ACE BASIN NERRS NOT AVBL FORT PULASKI 1500 80 81 150/ 5/ 6 1019.8R SAPELO ISLAND 1400 81 180/ 6 1019.0S $$ ANZ835-935-AMZ111-154-330-350-352-354-370-450-454-472-011600- ...C-MAN AND BUOY OBSERVATIONS... STATION/POSITION TIME TEMP WIND PRES WAVE SWELL AIR SEA DIR/SP/G HT/PER HT/PER/DIR (UTC) (F) (DEG/KT/KT) (MB) (FT/S) (FT/S/D) BUOY 41004 1450 78 80 360/ 2/ 4 1019.4R 3/10 3/10 BUOY 41008 1450 78 79 160/ 6/ 6 1019.7R 3/10 2/ 90/10 FOLLY BEACH CMAN 1500 79 120/ 5/ 6 1019.5S CAPERS NEARSHORE 1408 78 10/ 2/ 4 1019.5R FRIPP NEARSHORE 1400 83 CALM / 2 1019.1R STATION/POSITION TIME TEMP WIND PRES WAVE SWELL AIR SEA DIR/SP/G HT/PER HT/PER/DIR (UTC) (F) (DEG/KT/KT) (MB) (FT/S) (FT/S/D) 5E ST. MARYS GA 1421 80 N/A 3/10 FRYING PAN BUOY 1450 78 78 60/ 2/ 4 1020.3F 3/10 3/110/10 BUOY 41025 1450 76 80 280/ 4/ 6 1020.1S 4/ 9 3/ 90/ 9 CAPE LOOKOUT NC 1500 78 CALM / 1 1019.5F BUOY 41002 1450 75 76 30/ 2/ 4 1020.0S 5/ 9 5/ 70/ 9 BUOY 41010 1420 78 80 120/ 4/ 6 1019.9R ST AUGUSTINE FL 1500 78 79 140/ 8/ 9 1020.2S $$

USA.gov is the U.S. government's official web portal to all federal, state and local government web resources and services.